Weather observations for the past three days for
King Airport, St. Thomas
Metric (Imperial)
Date Time (ast) Wind (kph) Vis. (km) Weather Sky Cond. Temperature (ºC) Relative Humidity Wind Chill (°C) Heat Index (°C) Pressure Precipitation (cm)
Air Dwpt 6 hour altimeter (cm) sea level (mb) 1 hr 3 hr 6 hr
Max. Min.
21 10:53 SE 22 16.09 Partly Cloudy SCT025 0 0 0% 76.12 0.0
21 09:53 SE 24 16.09 Partly Cloudy SCT030 0 0 0% 76.15 0.0
21 07:53 SE 22 16.09 Partly Cloudy SCT030 0 0 0% 76.1 1014.8
21 06:53 E 13 16.09 NULL NULL 0 0 0% 76.07 0.0
21 04:53 E 13 16.09 NULL NULL 0 0 0% 75.97 1013.1
21 02:53 E 13 16.09 NULL NULL 0 0 0% 76 1013.4
21 00:53 E 13 16.09 NULL NULL 0 0 0% 76.05 0.0
20 23:53 E 9 16.09 NULL NULL 0 0 0% 76.1 0.0
20 22:53 E 11 16.09 NULL NULL 0 0 0% 76.12 0.0
20 20:53 E 9 16.09 NULL NULL 0 0 0% 76.07 0.0
20 19:53 E 13 16.09 A Few Clouds FEW030 0 0 0% 76.05 0.0
20 18:53 SE 15 16.09 Partly Cloudy FEW026 SCT070 0 0 0% 76 0.0
20 17:53 SE 19 16.09 Fair CLR 0 0 0% 75.95 0.0
20 15:53 SE 20 16.09 NULL NULL 0 0 0% 75.95 0.0
20 11:53 SE 20 16.09 Partly Cloudy SCT022 0 0 0% 76.15 0.0
20 10:53 SE 24 16.09 Partly Cloudy SCT030 0 0 0% 76.17 0.0
20 08:53 SE 20 16.09 Partly Cloudy SCT030 0 0 0% 76.17 1015.8
20 07:53 SE 20 16.09 Partly Cloudy SCT030 0 0 0% 76.15 1015.4
20 06:53 E 11 16.09 Partly Cloudy SCT030 0 0 0% 76.12 1015.1
20 05:53 E 13 16.09 NULL NULL 0 0 0% 76.07 1014.4
20 04:53 E 9 16.09 NULL NULL 0 0 0% 76.02 1013.7
20 03:53 E 9 16.09 NULL NULL 0 0 0% 76.02 0.0
20 01:53 E 13 16.09 NULL NULL 0 0 0% 76.07 0.0
20 00:53 E 9 16.09 NULL NULL 0 0 0% 76.12 1015.1
19 23:53 E 11 16.09 NULL NULL 0 0 0% 76.17 1015.8
19 22:53 E 11 16.09 NULL NULL 0 0 0% 76.2 0.0
19 21:53 E 7 16.09 Fair CLR 0 0 0% 76.17 0.0
19 20:53 E 9 16.09 NULL NULL 0 0 0% 76.15 0.0
19 19:53 E 17 16.09 Fair CLR 0 0 0% 76.12 1015.1
19 18:53 E 11 16.09 Partly Cloudy SCT022 0 0 0% 76.07 0.0
19 17:53 SE 13 16.09 A Few Clouds FEW022 0 0 0% 76.02 0.0
19 16:53 SE 15 16.09 A Few Clouds FEW030 0 0 0% 76 1013.4
19 15:53 SE 17 16.09 A Few Clouds FEW030 0 0 0% 76.02 1013.7
19 14:53 SE 19 16.09 Partly Cloudy SCT030 0 0 0% 76.07 0.0
19 11:53 SE 17 16.09 Partly Cloudy SCT030 0 0 0% 76.23 0.0
19 10:53 SE 20 16.09 Partly Cloudy SCT030 0 0 0% 76.25 0.0
19 09:53 SE 17 16.09 Partly Cloudy SCT028 0 0 0% 76.25 1016.8
19 08:53 E 19 16.09 Partly Cloudy SCT028 0 0 0% 76.23 1016.5
19 06:53 E 11 16.09 NULL NULL 0 0 0% 76.2 0.0
19 05:53 E 9 16.09 NULL NULL 0 0 0% 76.15 1015.4
19 04:53 E 11 16.09 NULL NULL 0 0 0% 76.12 0.0
19 01:53 E 11 16.09 NULL NULL 0 0 0% 76.15 0.0
18 21:53 E 15 16.09 NULL NULL 0 0 0% 76.25 1016.8
18 18:53 E 11 16.09 A Few Clouds FEW030 0 0 0% 76.17 1015.8
Date Time (ast) Wind (kph) Vis. (km) Weather Sky Cond. Air Dwpt Max. Min. Relative Humidity Wind Chill (°C) Heat Index (°C) altimeter (cm) sea level (mb) 1 hr 3 hr 6 hr
6 hour
Temperature (ºC) Pressure Precipitation (cm)